Minot AFB, ND

6:59 AM CDT on October 20, 2019 (GMT -0500)
Minot Air Force Base

Weather History for KMIB - August, 2019

Change the Weather History Date:

Tuesday, August 20, 2019

  Actual Average Record
Temperature  
Mean Temperature 62 °F -  
Max Temperature 74 °F 80 °F 93 °F (2003)
Min Temperature 48 °F 53 °F 33 °F (2004)
Degree Days  
Heating Degree Days 3    
Growing Degree Days 12 (Base 50)    
Moisture  
Dew Point 47 °F    
Average Humidity 60    
Maximum Humidity 84    
Minimum Humidity 35    
Precipitation  
Precipitation 0.00 in - - ()
Sea Level Pressure  
Sea Level Pressure 30.08 in    
Wind  
Wind Speed 9 mph ()    
Max Wind Speed 17 mph    
Max Gust Speed -    
Visibility 10.0 miles    
Events      
Averages and records for this station are not official NWS values.
T = Trace of Precipitation, MM = Missing Value Source: Averaged Metar Reports

Daily Weather History Graph

Daily Weather History Graph

Search for Another Location

Airport or City:

Astronomy

Aug. 20, 2019 Rise Set
Actual Time 6:45 AM CDT 8:50 PM CDT
Civil Twilight 6:12 AM CDT 9:24 PM CDT
Nautical Twilight 5:29 AM CDT 10:06 PM CDT
Astronomical Twilight 4:42 AM CDT 10:53 PM CDT
Moon 11:17 PM CDT 11:46 AM CDT
Length of Visible Light 15h 12m
Length of Day
14h 04m
Waning Gibbous, 77% of the Moon is Illuminated
Aug 20
Waning Gibbous
Aug 23
Last Quarter
Aug 30
New
Sep 5
First Quarter
Sep 13
Full

Hourly Weather History & Observations

Time (CDT) Temp. Dew Point Humidity Pressure Visibility Wind Dir Wind Speed Gust Speed Precip Events Conditions
12:56 AM 63.7 °F 58.1 °F 82% 29.80 in 10.0 mi NW 13.8 mph - N/A   Clear
1:56 AM 61.0 °F 54.7 °F 80% 29.84 in 10.0 mi NNW 17.3 mph - N/A   Clear
2:56 AM 59.5 °F 51.6 °F 75% 29.89 in 10.0 mi North 13.8 mph - N/A   Clear
3:56 AM 58.1 °F 49.8 °F 74% 29.94 in 10.0 mi NNW 11.5 mph - N/A   Clear
4:56 AM 55.9 °F 48.7 °F 77% 29.99 in 10.0 mi NNW 8.1 mph - N/A   Clear
5:56 AM 53.1 °F 47.7 °F 82% 30.04 in 10.0 mi NNW 10.4 mph - N/A   Clear
6:56 AM 52.0 °F 47.3 °F 84% 30.07 in 10.0 mi NNW 10.4 mph - N/A   Clear
8:56 AM 56.8 °F 47.5 °F 71% 30.14 in 10.0 mi North 11.5 mph - N/A   Clear
9:56 AM 60.1 °F 47.5 °F 63% 30.15 in 10.0 mi North 13.8 mph - N/A   Clear
10:56 AM 63.3 °F 47.3 °F 56% 30.16 in 10.0 mi NNE 13.8 mph - N/A   Clear
11:56 AM 66.2 °F 45.3 °F 47% 30.16 in 10.0 mi North 13.8 mph - N/A   Clear
12:56 PM 68.4 °F 45.5 °F 44% 30.14 in 10.0 mi NE 12.7 mph - N/A   Clear
1:56 PM 69.6 °F 45.5 °F 42% 30.15 in 10.0 mi North 9.2 mph - N/A   Clear
2:56 PM 71.2 °F 45.7 °F 40% 30.15 in 10.0 mi North 5.8 mph - N/A   Clear
3:56 PM 71.8 °F 44.8 °F 38% 30.14 in 10.0 mi Calm Calm - N/A   Clear
4:56 PM 73.6 °F 44.2 °F 35% 30.14 in 10.0 mi North 3.5 mph - N/A   Clear
5:56 PM 73.9 °F 44.6 °F 35% 30.13 in 10.0 mi NW 9.2 mph - N/A   Clear
6:56 PM 73.8 °F 45.1 °F 36% 30.13 in 10.0 mi NW 9.2 mph - N/A   Clear
7:56 PM 71.8 °F 46.2 °F 40% 30.13 in 10.0 mi NNW 5.8 mph - N/A   Clear
8:56 PM 63.9 °F 48.4 °F 57% 30.14 in 10.0 mi NNW 4.6 mph - N/A   Clear
9:56 PM 56.7 °F 46.2 °F 68% 30.15 in 10.0 mi NNW 4.6 mph - N/A   Clear
10:56 PM 51.8 °F 45.1 °F 78% 30.14 in 10.0 mi NW 5.8 mph - N/A   Clear
11:56 PM 48.4 °F 43.7 °F 84% 30.18 in 10.0 mi Calm Calm - N/A   Clear